Regional Weather Roundup
Issued by NWS

Home | Current Version | Previous Version | Graphics & Text | Print | Product List | Glossary On
Versions: 1 2 3 4 5 6 7 8 9 10 11 12 13 14 15 16 17 18 19 20 21 22 23 24 25 26 27
000
ASUS45 KTFX 251710
RWRMT
MONTANA REGIONAL WEATHER ROUNDUP
NATIONAL WEATHER SERVICE GREAT FALLS MT
1100 AM MDT SUN SEP 25 2016

NOTE: "FAIR" INDICATES FEW OR NO CLOUDS BELOW 12000 FEET WITH NO
SIGNIFICANT WEATHER AND/OR OBSTRUCTIONS TO VISIBILITY.

MTZ001>007-043-251800-
WEST OF THE DIVIDE

CITY           SKY/WX    TMP DP  RH WIND       PRES   REMARKS
KALISPELL      PTSUNNY   53  42  66 S5        30.43S
MISSOULA       CLOUDY    48  39  71 CALM      30.50S
BUTTE          SUNNY     47  32  56 CALM      30.50R
MULLAN PASS    CLOUDY    45  34  65 CALM      30.48R
ANACONDA         N/A     54  32  43 SE7       30.46S
DEER LODGE       N/A     48  34  57 CALM      30.50F
EUREKA           N/A     57  37  47 SE9         N/A
HAMILTON         N/A     54  37  54 SW3       30.48R
LIBBY            N/A     52  39  62 CALM      30.41F
PLAINS           N/A     50  39  65 CALM      30.44R
RONAN            N/A     56  40  55 SW3       30.46R
THOMPSON FALLS   N/A     51  41  69 E1        30.47R
$$

MTZ008-052>055-251800-
SOUTHWEST MONTANA

CITY           SKY/WX    TMP DP  RH WIND       PRES   REMARKS
BOZEMAN        SUNNY     51  36  56 CALM      30.48S
DILLON         SUNNY     51  34  52 VRB6      30.48S
W YELLOWSTONE  SUNNY     43  32  65 CALM      30.55R
ENNIS          SUNNY     55  23  28 S10       30.53S
THREE FORKS      N/A     53  46  77 NE5       30.41S
TWIN BRIDGES     N/A     52  32  46 SE6       30.42R
$$

MTZ009-010-012-014-046-048-049-054-251800-
EAST SLOPES AND CENTRAL MONTANA

CITY           SKY/WX    TMP DP  RH WIND       PRES   REMARKS
CUT BANK       MOSUNNY   60  34  37 SW18      30.30F
GREAT FALLS    SUNNY     57  35  43 SW13      30.36F
MALMSTROM AFB  SUNNY     56  35  45 SW15G24   30.36F
HELENA         SUNNY     60  32  34 W15       30.43S
AUGUSTA          N/A     58  31  35 W18G26    30.35S
BOWMANS CRNR     N/A     55  32  41 S16       30.34F
CHOTEAU          N/A     59  34  38 SW12      30.35S
CONRAD           N/A     61  39  44 W13       30.31S
FAIRFIELD      PTSUNNY   57  34  40 W10       30.34S
POWER            N/A     55  36  48 SW14      30.34F
RAYNESFORD       N/A     56  31  38 W14G20    30.37S
$$

MTZ011-013-016-021-045-047-050-051-251800-
NORTH CENTRAL MONTANA

CITY           SKY/WX    TMP DP  RH WIND       PRES   REMARKS
HAVRE          SUNNY     54  41  61 SW17      30.32S
LEWISTOWN      SUNNY     54  37  52 W9        30.37F
N BAR RANCH      N/A     55  34  44 NW12G17   30.39S
CHINOOK          N/A     57  39  51 W12       30.31S
DENTON           N/A     57  34  41 W13G20    30.32S
GEYSER           N/A     58  31  35 W18G26    30.35S
GRASS RANGE      N/A     55  37  51 W14G23    30.34S
JUDITH GAP       N/A     52  33  48 N2        30.38F
ROY              N/A     58  38  47 MISG      30.34S
STANFORD         N/A     55  31  40 NW7       30.37S
WINIFRED         N/A     55  39  54 MISG      30.35S
$$

MTZ017>020-022>027-061-062-251800-
NORTHEAST MONTANA

CITY           SKY/WX    TMP DP  RH WIND       PRES   REMARKS
GLASGOW        SUNNY     56  36  47 W15       30.29S
JORDAN           N/A     59  44  57 W12       30.32S
SIDNEY         SUNNY     59  37  44 NW24G31   30.23R
WOLF POINT     SUNNY     58  42  55 W13       30.27F
PLENTYWOOD       N/A     55  36  47 NW28G35   30.18S
POPLAR           N/A     59  36  41 NW18G25   30.25S
SCOBEY           N/A     57  32  39 W22       30.21R
$$

MTZ028>42-056>058-251800-
SOUTHCENTRAL AND SOUTHEAST MONTANA

CITY           SKY/WX    TMP DP  RH WIND       PRES   REMARKS
BAKER          SUNNY     55  35  47 NW23G31   30.31R
BILLINGS       MOSUNNY   56  39  53 SW7       30.40S
LIVINGSTON     SUNNY     56  31  38 W21       30.43S
MILES CITY     SUNNY     59  36  42 NW12      30.35S
BIG TIMBER     SUNNY     55  32  41 W25G35    30.42S
EKALAKA          N/A     52  35  52 NW16      30.28R
FORSYTH          N/A     55  43  62 W9        30.37S
HARLOWTON        N/A     54  36  52 W21G29    30.40S
LAUREL           N/A     57  38  49 S1        30.36R
ROUNDUP          N/A     58  36  43 SW10      30.25S
$$

REGIONAL REPORTS...DAKOTAS

CITY           SKY/WX    TMP DP  RH WIND       PRES   REMARKS
WILLISTON      SUNNY     58  39  49 NW25G31   30.19R
MINOT          SUNNY     58  42  55 W26G38    30.03R
DICKINSON      SUNNY     54  36  50 NW28G36   30.20R
CROSBY           N/A     55  39  54 NW28G35   30.15S
WATFORD CITY     N/A     55  39  54 NW23G32   30.20R
BISMARCK       MOSUNNY   59  38  45 NW29G43   30.09R
GRAND FORKS    LGT RAIN  55  52  89 NW17G33   29.75R
FARGO          CLOUDY    59  51  75 W23G31    29.81R
BUFFALO SD       N/A     56  35  45 NW29G40   30.23R
RAPID CITY     SUNNY     59  31  34 NW25G35   30.34R
$$

REGIONAL REPORTS...WYOMING/IDAHO/WASHINGTON

CITY           SKY/WX    TMP DP  RH WIND       PRES   REMARKS
GILLETTE       SUNNY     54  35  48 N15       30.41S
SHERIDAN       SUNNY     59  35  40 NW8       30.41S
BUFFALO WY     MOSUNNY   54  38  54 VRB3      30.44S
CODY           SUNNY     53  35  50 E6        30.45S
YELLOWSTONE LA   N/A     43  31  62 VRB6      30.56R
IDAHO FALLS    SUNNY     52  35  52 SW6       30.52R
SALMON         SUNNY     48  36  61 NW5       30.53S
BOISE          SUNNY     61  35  37 S3        30.48R
SPOKANE        PTSUNNY   58  38  47 S10       30.42S
$$

REGIONAL REPORTS...ALBERTA

CITY           SKY/WX    TMP DP  RH WIND       PRES   REMARKS
EDMONTON       MOSUNNY   54  34  47 W9        30.22F
CALGARY        PTSUNNY   54  28  37 S6        30.24F
LETHBRIDGE     PTSUNNY   54  39  58 SW7       30.26F
MEDICINE HAT   MOSUNNY   50  39  66 SW9       30.27S
WATERTON GATE    N/A     57  34  41 SW16G26     N/A
CARDSTON         N/A     61  34  36 W13G23      N/A
MILK RIVER       N/A     59  39  47 W7          N/A
$$

REGIONAL REPORTS...SASKATCHEWAN

CITY           SKY/WX    TMP DP  RH WIND       PRES   REMARKS
SWIFT CURRENT  SUNNY     54  36  50 W13       30.24S
REGINA         MOSUNNY   55  39  54 NW23G30   30.13R
SASKATOON      SUNNY     55  37  50 NW15      30.17R
CYPRESS HILLS    N/A     54  32  43 S8          N/A
VAL MARIE        N/A     59  30  33 W9          N/A
ROCKGLEN         N/A     55  32  41 NW17G25     N/A
ASSINIBOIA       N/A     55  36  47 W9          N/A
$$




USA.gov is the U.S. government's official web portal to all federal, state and local government web resources and services.